Regional Weather Roundup
Issued by NWS Pendleton, OR

Home | Current Version | Previous Version | Text Only | Print | Product List | Glossary On
Versions: 1 2 3 4 5 6 7 8 9 10 11 12 13 14 15 16 17 18 19 20 21 22 23 24 25 26 27 28 29 30 31 32 33 34 35 36 37 38 39 40 41 42 43 44 45 46 47 48 49 50
000
ASUS46 KPDT 281525
RWRPDT
PENDLETON REGIONAL WEATHER ROUNDUP
NATIONAL WEATHER SERVICE PENDLETON OREGON
800 AM PDT TUE JUL 28 2015

NOTE: FAIR INDICATES FEW OR NO CLOUDS BELOW 12,000 FEET WITH NO
SIGNIFICANT WEATHER AND/OR OBSTRUCTIONS TO VISIBILITY.

# INDICATES UNOFFICIAL STATION AND DATA

WAZ520-281610-
EAST SLOPES OF WASHINGTON CASCADES

CITY            SKY/WX      TMP DP  RH  WIND    PRES   REMARKS
#BULLFROG 2SW   N/A         59  45  60  N10     27.84S
#BUMPING DAM    N/A         43  N/A N/A S2      N/A
#CLE ELUM HS    N/A         55  44  66  CALM    30.18S
#CLE ELUM LAKE  N/A         53  43  69  CALM    30.17R
#CLIFFDEL 2NW   N/A         47  42  83  CALM    N/A
#GLENWOOD       N/A         47  44  89  CALM    30.22S
#MANASTASH CYN  N/A         58  38  47  CALM    30.20R
#NELSON         N/A         57  49  75  CALM    30.20S
#NELSON 3SW     N/A         55  45  69  CALM    30.38S
#NILE           N/A         57  45  64  CALM    29.48S
#RONALD 2NW     N/A         53  28  38  CALM    30.11S
#SNOWDEN        N/A         50  44  80  CALM    N/A
#TEANAWAY 4NE   N/A         52  44  74  W2      N/A
#TROUT LAKE 1NE N/A         54  45  71  CALM    30.20S
$$

WAZ521-281610-
SIMCOE HIGHLANDS

CITY            SKY/WX      TMP DP  RH  WIND    PRES   REMARKS
#BICKLETON HS   N/A         61  32  33  CALM    N/A
#CENTERVILLE 4W N/A         59  48  67  SE2     29.99R
#CENTERVILLE 1SWN/A         56  44  64  CALM    30.17F
#GOLDENDALE     N/A         49  38  66  E2      N/A
#GOLDENDALE 1NE N/A         56  32  40  CALM    N/A
#GOLDENDALE 5WNWN/A         58  44  60  CALM    30.19R
#GOODNOE HILLS  N/A         64  51  63  W5      N/A
#LYLE 6NE       N/A         55  47  74  CALM    30.17R
$$

WAZ026-281610-
KITTITAS VALLEY

CITY            SKY/WX      TMP DP  RH  WIND    PRES   REMARKS
ELLENSBURG AP   PTCLDY      63  43  48  NE6     30.23R
YTC-OPS AREA    N/A         58  41  53  W16     30.22R
#ELLENSBURG CWU N/A         61  45  56  N2      30.14S
#ELLENSBURG 3NE N/A         58  47  67  E2      30.22R
#ELLENSBURG 1E  N/A         58  46  64  CALM    N/A
#KITTITAS 3S    N/A         58  50  75  CALM    30.16F
#THORP 6N       N/A         57  45  64  N8      30.20S
$$

WAZ027-281610-
YAKIMA VALLEY

CITY            SKY/WX      TMP DP  RH  WIND    PRES   REMARKS
SUNNYSIDE AP    PTCLDY      58  45  62  CALM    30.23R
YAKIMA AIRPORT  PTCLDY      65  43  45  CALM    30.23S
#DONALD 2NE     N/A         74  31  20  S1      29.06S
#GRANDVIEW      N/A         60  44  55  CALM    30.22R
#MABTON         N/A         61  50  67  NW2     30.21S
#MOXEE 2E       N/A         65  31  28  S1      30.12F
#NACHES 2SW     N/A         61  47  60  W7      30.24R
#OUTLOOK DOT    N/A         N/A N/A N/A NE1     N/A
#SELAH 8E       N/A         64  42  45  E3      N/A
#TERRACE HTS    N/A         63  44  50  N2      30.14S
#TOPPENISH      N/A         60  44  55  W1      30.12R
#WAPATO 4NE     N/A         74  31  20  S1      29.06S
#WEST VALLEY    N/A         64  45  50  N3      30.16S
#WHITE SWAN 5E  N/A         57  46  67  CALM    30.20S
#WILEY CITY 3W  N/A         66  34  30  CALM    30.19S
$$

WAZ028-281610-
LOWER COLUMBIA BASIN...WASHINGTON

CITY            SKY/WX      TMP DP  RH  WIND    PRES   REMARKS
HANFORD         MOSUNNY     66  43  43  W5      30.20R
PASCO           SUNNY       64  49  58  CALM    30.22R
RICHLAND AWOS   SUNNY       66  46  48  S6      30.21S
#BASIN CITY 5SW N/A         58  51  77  CALM    30.21S
#BENTON CITY    N/A         63  46  54  W1      30.11R
#CONNELL 5N     N/A         61  45  56  SW3     30.19R
#CONNELL 5NW    N/A         59  48  67  W2      30.16R
#ELTOPIA 6NW    N/A         59  51  75  S2      29.18R
#KAHLOTUS       N/A         63  44  50  W7      30.19R
#KENNEWICK      N/A         59  45  60  N10     27.84S
#KENNEWICK 3S   N/A         64  47  54  CALM    30.19R
#PASCO-BROADMOORN/A         80  39  23  SW6     29.92S
#PATERSON       N/A         62  50  65  SE1     30.20R
#PROSSER        N/A         62  44  52  CALM    30.19R
#SAGEMOOR 2W    N/A         62  51  67  CALM    30.04S
#TOUCHET 2S     N/A         59  49  69  CALM    30.19R
#WEST PASCO     N/A         64  51  63  CALM    30.24R
$$

WAZ029-281610-
FOOTHILLS OF THE BLUES...WASHINGTON

CITY            SKY/WX      TMP DP  RH  WIND    PRES   REMARKS
WALLA WALLA AP  PTCLDY      67  42  40  SW8     30.24R
#DAYTON SCHOOL  N/A         62  39  43  SW1     30.22R
#LOWDEN 2SE     N/A         66  50  56  CALM    30.19S
#PLEASANT VIEW 1N/A         62  44  52  S8      30.23R
#PRESCOTT       N/A         63  46  54  CALM    30.22R
#SUDBURY        N/A         67  N/A N/A CALM    N/A
#WHITMAN COLLEGEN/A         66  45  47  S1      30.26R
#WAITSBURG 8N   N/A         64  22  20  S10     30.09R
#WALLA WALLA U  N/A         66  47  50  CALM    30.20R
#WHITMAN MISSIONN/A         65  50  58  CALM    30.22S
$$

WAZ030-281610-
BLUE MOUNTAINS...WASHINGTON

CITY            SKY/WX      TMP DP  RH  WIND    PRES   REMARKS
$$

ORZ009-041-WAZ024-281610-
COLUMBIA RIVER GORGE

CITY            SKY/WX      TMP DP  RH  WIND    PRES   REMARKS
HOOD RIVER AP   SUNNY       59  48  67  CALM    30.24S
THE DALLES AP   SUNNY       63  50  62  N3      30.22S
#ARLINGTON AIRPON/A         63  50  62  W8      29.81S
#MOSIER 1S      N/A         59  46  62  N3      30.23S
#MURDOCK        N/A         62  54  75  NW9     30.23S

$$

ORZ510-281610-
NORTH CENTRAL OREGON

CITY            SKY/WX      TMP DP  RH  WIND    PRES   REMARKS
#CHENOWITH 1W   N/A         55  49  80  NW8     N/A
#DUFUR 9E       N/A         62  47  58  CALM    30.24S
#GRASS VALLEY 1SN/A         58  45  62  SW3     30.23S
#MAUPIN SCHOOL  N/A         57  45  64  CALM    30.25S
#MORO SCHOOL    N/A         61  53  75  S1      30.25R
#SHANIKO 4NW    N/A         57  42  57  S6      30.27R
#TYGH VALLEY 2NEN/A         55  45  69  CALM    30.22S
#WAPANITIA AIRPON/A         59  46  62  CALM    30.22S
#WASCO 5NE      N/A         61  49  65  CALM    30.20R
$$

ORZ511-281610-
CENTRAL OREGON

CITY            SKY/WX      TMP DP  RH  WIND    PRES   REMARKS
BEND AIRPORT    SUNNY       55  39  55  CALM    30.29R
MADRAS AIRPORT  SUNNY       55  43  64  S5      30.29S
PRINEVILLE AP   SUNNY       55  39  55  CALM    30.28S
REDMOND AIRPORT SUNNY       52  38  59  S3      30.28S
#BEND 1SW       N/A         50  40  68  CALM    N/A
#BEND-AWBREY    N/A         51  42  71  SW2     30.19S
#BEND-KIM LN    N/A         49  40  71  SW2     30.26R
#CROOKED RVR RANN/A         56  42  59  CALM    30.20R
#CULVER         N/A         53  43  69  W1      30.23S
#LAKE BILLY CHINN/A         54  19  25  CALM    30.29F
#POWELL BUTTE 3EN/A         47  39  74  E3      N/A
#POWELL BUTTE   N/A         65  48  54  N1      29.89R
#PRINEVILLE 3N  N/A         50  44  80  N2      30.18S
#WARM SPRINGS   N/A         57  42  57  CALM    30.24R

$$


ORZ509-281610-
EAST SLOPES OF OREGON CASCADES

CITY            SKY/WX      TMP DP  RH  WIND    PRES   REMARKS
#CAMP SHERMAN   N/A         37  34  89  CALM    30.29R
#LA PINE 4NW    N/A         42  35  76  CALM    30.26R
#SISTERS AIRPOR N/A         51  43  74  CALM    30.17S
#SISTERS 3N     N/A         50  39  66  CALM    30.37S
#SUNRIVER       N/A         49  40  71  S1      30.09S
#TUMALO 3W      N/A         54  41  61  CALM    30.09R
#WANOGA BUTTE D N/A         51  31  46  W2      N/A

$$

ORZ044-281610-
LOWER COLUMBIA BASIN...OREGON

CITY            SKY/WX      TMP DP  RH  WIND    PRES   REMARKS
HERMISTON       SUNNY       64  44  48  SW3     30.23R
#BOARDMAN SCHOOLN/A         62  48  60  SW1     30.23R
#BOARDMAN 8SW   N/A         64  50  60  SW3     30.20R
#ECHO 8SW       N/A         66  47  50  W6      30.23R
#IONE SCHOOL    N/A         60  43  53  CALM    30.20R
#IRRIGON 4NW    N/A         62  45  54  S2      N/A
#UMATILLA       N/A         64  45  50  CALM    30.14S
$$

ORZ507-281610-
NORTHERN FOOTHILLS OF THE BLUES

CITY            SKY/WX      TMP DP  RH  WIND    PRES   REMARKS
PENDLETON AIRPT PTCLDY      58  39  49  S7      30.24R
#ADAMS 3WNW     N/A         60  43  53  CALM    30.22R
#ATHENA         N/A         64  44  48  CALM    30.23R
#CAYUSE         N/A         62  44  52  E3      30.21R
#HELIX SCHOOL   N/A         56  43  62  CALM    30.21R
#HELIX 3N       N/A         61  43  51  SW8     30.21R
#HOLDMAN 5SE    N/A         63  45  52  W3      30.23S
#HOLDMAN 6E     N/A         61  44  53  SW1     30.02R
#M-F GROVE ELEM N/A         67  41  39  CALM    30.21R
#M-FREEWATER 5SEN/A         62  45  54  NE1     30.23R
#PENDLETON DNTN N/A         55  38  53  CALM    30.19S
#PDT AQUATIC CTRN/A         60  41  49  CALM    30.21S
#PDT SUNRIDGE   N/A         61  43  51  CALM    30.26R
#PENDLETON 7NW  N/A         61  44  53  CALM    N/A
#PILOT ROCK     N/A         62  40  44  CALM    30.26R
#TUTUILLA       N/A         59  43  55  CALM    30.24R
#UMAPINE 2E     N/A         68  48  49  CALM    30.20R
#WESTON SCHOOL  N/A         62  40  44  N2      30.14R

$$

ORZ508-281610-
SOUTHERN FOOTHILLS OF THE BLUES

CITY            SKY/WX      TMP DP  RH  WIND    PRES   REMARKS
#AJAX           N/A         58  38  47  S1      30.16S
#CONDON SCHOOL  N/A         56  44  64  CALM    30.21R
#CONDON 5W      N/A         55  41  59  CALM    30.23R
#FOSSIL SCHOOL  N/A         55  43  64  CALM    30.19F
#HEPPNER EOC    N/A         61  42  50  CALM    30.14S
#HEPPNER 4NE    N/A         60  43  53  W5      30.20R
#LEXINGTON 2SE  N/A         62  46  56  SE3     30.23S
#OLEX 4N        N/A         63  47  56  SW7     30.21S
#RUGGS 5NE      N/A         61  41  48  SW3     30.43R
#RUGGS 2SW      N/A         59  43  55  S3      30.22R

$$

ORZ502-503-281610-
BLUE MOUNTAINS

CITY            SKY/WX      TMP DP  RH  WIND    PRES   REMARKS
MEACHAM         PTCLDY      54  39  57  CALM    30.28S
#HEPPNER 15SE   N/A         53  40  61  NW1     30.20R
#LONG CREEK HS  N/A         51  46  83  CALM    30.25R
#PIKES PEAK     N/A         56  40  55  SW7     27.99S
#TOLLGATE       N/A         52  40  63  SW1     30.14R
#TROY SCHOOL    N/A         57  44  62  CALM    30.08S
#UKIAH          N/A         43  39  86  CALM    30.32R
#WESTON 4E      N/A         58  40  51  SW2     30.16R
$$

ORZ505-281610-
JOHN DAY BASIN

CITY            SKY/WX      TMP DP  RH  WIND    PRES   REMARKS
JOHN DAY        SUNNY       54  37  52  E6      30.31R
#JOHN DAY KJDY  N/A         55  40  57  NE1     30.31F
#DAYVILLE SCHOOLN/A         54  38  55  CALM    30.24S
#MITCHELL       N/A         56  45  66  CALM    30.40S
#MONUMENT HS    N/A         53  43  69  CALM    30.27S
#MT. VERNON 5SE N/A         54  38  55  CALM    30.26R
#WINLOCK        N/A         60  40  47  CALM    30.34R
$$

ORZ506-281610-
OCHOCO AND JOHN DAY HIGHLANDS

CITY            SKY/WX      TMP DP  RH  WIND    PRES   REMARKS
#HORSE RIDGE DO N/A         42  30  62  E3      N/A
#KEYES SMT DOT  N/A         53  39  59  NE2     N/A
#PAULINA SCHOOL N/A         50  36  58  CALM    30.23R
#PINE MTN OBS   N/A         49  33  54  S9      N/A
#PRAIRIE CITY   N/A         54  42  64  CALM    30.29F
#SENECA         N/A         39  N/A N/A CALM    N/A
#SENECA 9NW     N/A         38  34  85  CALM    30.23S
$$

ORZ049-281610-
GRANDE RONDE VALLEY

CITY            SKY/WX      TMP DP  RH  WIND    PRES   REMARKS
LA GRANDE       SUNNY       55  34  45  CALM    30.28R
#COVE           N/A         54  44  69  E1      30.29R
#COVE SCHOOL    N/A         56  41  57  CALM    30.28S
#COVE 6NW       N/A         47  40  76  CALM    30.29R
#ELGIN 3N       N/A         54  42  64  CALM    30.24S
#ELGIN 1E       N/A         45  39  79  CALM    N/A
#IMBLER SCHOOL  N/A         54  41  61  NE3     30.22R
#ISLAND CITY 4N N/A         54  52  93  CALM    30.24F
#LA GRANDE ELEM N/A         58  41  53  CALM    30.28R
#UNION 1S       N/A         56  44  64  CALM    30.14S
$$

ORZ050-281610-
WALLOWA COUNTY

CITY            SKY/WX      TMP DP  RH  WIND    PRES   REMARKS
JOSEPH AIRPORT  SUNNY       59  39  47  CALM    30.31R
#IMNAHA SCHOOL  N/A         52  40  63  S1      30.26S
#IMNAHA 10S     N/A         54  40  59  S2      30.26S
#JOSEPH 3N      N/A         52  41  66  CALM    30.28R
#JOSEPH 3W      N/A         61  41  48  SE1     30.11R
#LOSTINE        N/A         52  42  69  CALM    30.05R
#MT HOWARD 8000 N/A         43  32  65  CALM    30.38R
#PROMISE 1S     N/A         56  41  57  CALM    30.28F
#WALLOWA SCHOOL N/A         49  39  68  CALM    30.24S



$$



USA.gov is the U.S. government's official web portal to all federal, state and local government web resources and services.